[[{"header":{"parameterUnit":"m.s-1","parameterCategory":1,"la1":30.2991,"la2":30.254,"lo1":-89.0895,"lo2":-89.0444,"dy":0.0017,"dx":0.0017,"nx":28,"ny":28,"refTime":"2024-08-17T03:00:00:Z","depth":0,"parameterNumber":2,"parameterNumberName":"U-component_of_WINDS"},"data":[0,0,0,0,0,0,0,0,0,0,0,0,0,0,0,0,0,0,0,0,0,0,0,0,0,0,0,0,0,0,0,0,0,0,0,0,0,0,0,0,0,0,0,0,0,0,0,0,0,0,0,0,0,0,0,0,0,0,4.3674,4.3675,0,4.3811,4.3813,4.3814,4.375,4.3747,4.3743,4.374,4.3886,4.3893,4.39,0,0,0,0,0,0,0,0,0,0,0,0,0,4.3362,4.3368,4.3674,4.3676,4.3677,4.3811,4.3813,4.3814,4.3751,4.3747,4.3743,4.3739,4.3883,4.3892,4.39,0,0,0,0,0,0,0,0,0,0,0,0,0,4.3498,4.337,4.3674,4.3662,4.3662,4.381,4.3813,4.3815,4.3752,4.3747,4.3741,4.3737,4.3881,4.3891,4.3901,4.4071,0,0,4.3934,4.3939,0,0,0,0,0,0,0,0,4.3491,4.351,4.3662,4.3663,4.3663,4.3758,4.3756,4.3901,4.3753,4.3718,4.374,4.3734,4.3848,4.3861,4.3898,4.4078,4.4084,4.3935,4.3941,4.3946,4.3949,0,0,0,0,0,0,0,4.3481,4.3504,4.3728,4.3664,4.3665,4.3651,4.3665,4.3783,4.3811,4.3721,4.3716,4.3733,4.3847,4.3888,4.3901,4.4086,4.3935,4.3944,4.3951,4.3955,4.4414,4.4419,0,0,0,0,0,0,4.3471,4.3496,4.3724,4.3732,4.3562,4.3661,4.3676,4.3733,4.3809,4.3815,4.3737,4.373,4.3872,4.3889,4.3906,4.411,4.3946,4.3956,4.3962,4.4408,4.4415,4.4421,0,0,0,0,0,0,4.3465,4.3492,4.3718,4.3613,4.3641,4.3672,4.3736,4.3738,4.3779,4.3822,4.3827,4.3774,4.3869,4.3891,4.403,4.4114,4.3961,4.397,4.4401,4.441,4.4418,4.452,0,0,0,0,0,0,4.3456,4.349,4.3554,4.3615,4.3647,4.3839,4.3741,4.3745,4.3797,4.3788,4.3857,4.3863,4.3866,4.4015,4.4041,4.4126,4.3979,4.4394,4.4405,4.4415,4.4509,4.4531,4.455,0,0,0,0,0,4.3445,4.3578,4.3558,4.3585,4.3726,4.3844,4.3862,4.3862,4.3804,4.3869,4.3896,4.3861,4.4101,4.403,4.4059,4.4148,4.4388,4.4402,4.4414,4.45,4.4527,4.4549,0,0,0,0,0,0,4.3528,4.3586,4.3564,4.372,4.3777,4.3833,4.3915,4.389,4.3966,4.3955,4.3953,4.3969,4.4113,4.4145,4.4064,4.4317,4.4236,4.4255,4.4291,4.4317,4.4337,4.4326,4.3987,0,0,0,0,0,4.3564,4.3653,4.3699,4.3833,4.3863,4.3884,4.3935,4.393,4.399,4.4015,4.4052,4.4114,4.4202,4.4261,4.4346,4.4513,4.4528,4.4589,4.461,4.4626,4.4643,4.4735,4.4763,4.4464,4.4464,4.4464,0,0,4.364,4.3682,4.3739,4.385,4.3894,4.3988,4.3905,4.4008,4.4078,4.4031,4.4164,4.4194,4.4263,4.4417,4.4487,4.4448,4.4729,4.4643,4.4655,4.4664,4.4751,4.478,4.4805,4.4473,4.4471,4.447,0,0,4.3826,4.3867,4.3982,4.4028,4.4095,4.4109,4.4137,4.4197,4.4214,4.4348,4.4315,4.4399,4.4552,4.4602,4.4648,4.4854,4.4825,4.4882,4.4988,4.5078,4.5101,4.5122,4.5196,4.5223,4.4899,4.4899,4.4899,0,4.3912,4.4051,4.4046,4.4151,4.4202,4.4162,4.428,4.4325,4.4417,4.4454,4.4408,4.46,4.4643,4.4809,4.4859,4.4897,4.493,4.4874,4.5098,4.5119,4.5138,4.5209,4.5237,4.4906,4.4905,4.4904,4.4904,0,4.4154,4.4251,4.4336,4.4425,4.4485,4.4597,4.461,4.4672,4.4662,4.468,4.4818,4.4868,4.4962,4.5001,4.4993,4.5167,4.5141,4.5097,4.5015,4.5173,4.524,4.5267,4.4915,4.4913,4.4911,4.4909,0,0,4.4396,4.448,4.4511,4.4551,4.4623,4.4698,4.4809,4.4899,4.4953,4.5018,4.5112,4.5242,4.5202,4.5254,4.5251,4.533,4.5491,4.5276,4.5278,4.5315,4.5687,4.572,4.5751,4.5472,4.5477,4.5481,4.5682,0,4.4587,4.4779,4.4778,4.4955,4.5045,4.5009,4.5106,4.5161,4.5182,4.5263,4.5286,4.5379,4.5319,4.535,4.5426,4.5455,4.5566,4.544,4.556,4.5565,4.5544,4.5786,4.5821,4.6008,4.5707,4.5712,4.5715,0,4.4836,4.4908,4.5095,4.5153,4.5191,4.5278,4.5361,4.5438,4.5501,4.5511,4.5569,4.5554,4.5668,4.5583,4.5741,4.5656,4.5705,4.5727,4.5734,4.5745,4.565,4.5805,4.6067,4.6096,4.5756,4.5753,4.575,0,4.4995,4.5138,4.5268,4.5304,4.5375,4.5437,4.547,4.5528,4.5582,4.5656,4.5692,4.5778,4.5826,4.5894,4.5903,4.584,4.6063,4.5978,4.6076,4.6076,4.6124,4.6121,4.6399,4.6155,4.6155,4.6154,4.6154,0,4.5209,4.5325,4.534,4.5421,4.555,4.5548,4.5677,4.5705,4.5756,4.5842,4.5817,4.5899,4.5906,4.5991,4.5999,4.6129,4.6151,4.6163,4.6164,4.6166,4.6165,4.6198,4.6186,4.6162,4.616,4.6159,4.6158,0,4.5408,4.5423,4.5562,4.5619,4.5636,4.5728,4.5777,4.5855,4.5873,4.5983,4.6008,4.6038,4.6137,4.6152,4.6269,4.6274,4.6431,4.6418,4.6409,4.6408,4.6504,4.6495,4.6814,4.6856,4.6585,4.6587,4.6589,0,4.5544,4.5632,4.5697,4.5752,4.5788,4.5878,4.5933,4.5936,4.5995,4.6073,4.6142,4.6237,4.6314,4.6474,4.6507,4.6596,4.6586,4.6691,4.6599,4.6598,4.6588,4.6583,4.6592,4.6709,4.6712,4.6714,4.6716,0,4.5784,4.5787,4.5867,4.595,4.6017,4.6083,4.6145,4.6193,4.6204,4.6272,4.6371,4.6431,4.6549,4.6645,4.6734,4.6769,4.6746,4.6745,4.6772,4.6775,4.6767,4.6774,4.6458,4.6738,4.6736,4.6734,4.6733,4.6732,4.5956,4.6032,4.609,4.6181,4.6228,4.6287,4.6363,4.639,4.6473,4.6568,4.6565,4.6675,4.6737,4.6853,4.6895,4.6982,4.6948,4.6988,4.6998,4.7008,4.7018,4.6752,4.6998,4.6998,4.6997,4.6997,4.6996,0,4.6195,4.623,4.6313,4.6401,4.6473,4.6443,4.651,4.6573,4.6669,4.6728,4.6804,4.6919,4.7012,4.7052,4.7144,4.7207,4.7198,4.7231,4.7227,4.7236,4.7042,4.701,4.7236,4.7236,4.7236,4.7236,4.7236,4.7236,4.6328,4.6456,4.6466,4.6619,4.6654,4.676,4.6801,4.6857,4.6903,4.7033,4.7109,4.7134,4.7186,4.7282,4.7367,4.7376,4.7412,4.745,4.7455,4.7273,4.7249,4.7226,4.7195,4.7457,4.7457,4.7641,4.7642,4.7644]},{"header":{"parameterUnit":"m.s-1","parameterCategory":1,"la1":30.2991,"la2":30.254,"lo1":-89.0895,"lo2":-89.0444,"dy":0.0017,"dx":0.0017,"nx":28,"ny":28,"refTime":"2024-08-17T03:00:00:Z","depth":0,"parameterNumber":3,"parameterNumberName":"V-component_of_WINDS"},"data":[0,0,0,0,0,0,0,0,0,0,0,0,0,0,0,0,0,0,0,0,0,0,0,0,0,0,0,0,0,0,0,0,0,0,0,0,0,0,0,0,0,0,0,0,0,0,0,0,0,0,0,0,0,0,0,0,0,0,4.1379,4.1381,0,4.1612,4.1614,4.1617,4.1635,4.1632,4.163,4.1627,4.1868,4.1876,4.1885,0,0,0,0,0,0,0,0,0,0,0,0,0,4.0951,4.0959,4.1379,4.1382,4.1384,4.1611,4.1614,4.1618,4.1635,4.1632,4.1629,4.1626,4.1865,4.1875,4.1886,0,0,0,0,0,0,0,0,0,0,0,0,0,4.1156,4.0962,4.1378,4.1421,4.1427,4.1611,4.1614,4.1618,4.1636,4.1632,4.1628,4.1625,4.1862,4.1874,4.1887,4.2045,0,0,4.1928,4.1933,0,0,0,0,0,0,0,0,4.1144,4.1172,4.1412,4.1418,4.1425,4.159,4.1552,4.1762,4.1637,4.1557,4.1627,4.1623,4.1779,4.1798,4.1851,4.2056,4.2067,4.1929,4.1937,4.1942,4.1946,0,0,0,0,0,0,0,4.113,4.1162,4.1471,4.1415,4.1423,4.1429,4.1453,4.1592,4.1686,4.1563,4.1565,4.1592,4.1782,4.1838,4.1856,4.207,4.1928,4.194,4.1948,4.1953,4.2417,4.2422,0,0,0,0,0,0,4.1107,4.115,4.1463,4.1478,4.1272,4.1439,4.1467,4.1541,4.1685,4.1703,4.1595,4.1592,4.1817,4.1841,4.1865,4.206,4.1942,4.1955,4.1962,4.2413,4.2418,4.2423,0,0,0,0,0,0,4.1098,4.1135,4.1454,4.1314,4.1355,4.1451,4.1534,4.1548,4.1604,4.1709,4.1726,4.1635,4.1815,4.1846,4.2,4.2068,4.196,4.1972,4.2408,4.2415,4.2421,4.245,0,0,0,0,0,0,4.1086,4.1132,4.1193,4.1316,4.1363,4.1585,4.1538,4.1555,4.1626,4.1625,4.1751,4.1768,4.1815,4.198,4.2013,4.2084,4.1983,4.2402,4.2411,4.2419,4.2443,4.2456,4.2468,0,0,0,0,0,4.1071,4.1192,4.1196,4.1233,4.144,4.1589,4.1616,4.1666,4.1632,4.1694,4.1761,4.1764,4.2055,4.1996,4.2033,4.2109,4.2398,4.2408,4.2418,4.2438,4.2454,4.2468,0,0,0,0,0,0,4.1075,4.1209,4.1214,4.1379,4.1472,4.1592,4.1672,4.1682,4.1788,4.1782,4.184,4.1868,4.202,4.208,4.2012,4.2269,4.2223,4.2241,4.2225,4.2241,4.2254,4.2237,4.1994,0,0,0,0,0,4.1095,4.1204,4.1315,4.145,4.1496,4.1576,4.1642,4.1673,4.1772,4.1812,4.1891,4.1988,4.2101,4.2174,4.2284,4.2451,4.2479,4.2522,4.2534,4.2544,4.2559,4.2652,4.2673,4.2456,4.2456,4.2456,0,0,4.1138,4.1225,4.129,4.1453,4.1529,4.1641,4.1609,4.1729,4.1813,4.183,4.198,4.2041,4.2153,4.2314,4.2389,4.2369,4.2625,4.2557,4.2563,4.2574,4.2665,4.2685,4.2703,4.2463,4.2461,4.246,0,0,4.1274,4.135,4.147,4.1547,4.1662,4.1714,4.1742,4.1861,4.1902,4.2053,4.2068,4.2169,4.2362,4.2442,4.2507,4.2672,4.2679,4.2706,4.2771,4.2861,4.2878,4.2894,4.2953,4.2974,4.272,4.272,4.272,0,4.1313,4.1482,4.1531,4.1651,4.1722,4.1742,4.1865,4.1937,4.2082,4.2131,4.2106,4.2349,4.2426,4.2606,4.2646,4.2698,4.2733,4.2692,4.2872,4.2888,4.2903,4.296,4.2982,4.2723,4.2723,4.2722,4.2722,0,4.1524,4.1641,4.1725,4.1864,4.1944,4.2065,4.2133,4.2209,4.2232,4.2286,4.244,4.2533,4.2662,4.2706,4.273,4.289,4.2874,4.286,4.2814,4.2925,4.298,4.3003,4.2727,4.2726,4.2725,4.2724,0,0,4.1671,4.1835,4.1865,4.1928,4.2056,4.2148,4.2269,4.2394,4.2459,4.2558,4.2662,4.2824,4.2812,4.2886,4.2919,4.2998,4.3123,4.2974,4.2977,4.2999,4.3305,4.3316,4.334,4.3127,4.3132,4.3135,4.3296,0,4.1822,4.2038,4.2085,4.2272,4.2381,4.2401,4.2506,4.2597,4.2651,4.2751,4.2811,4.2926,4.29,4.2945,4.3024,4.3091,4.3185,4.308,4.3225,4.323,4.3198,4.3369,4.3381,4.3528,4.3318,4.3321,4.3324,0,4.2027,4.213,4.2327,4.244,4.2487,4.2582,4.27,4.2796,4.2899,4.2932,4.3015,4.3039,4.3167,4.3114,4.329,4.3218,4.328,4.3322,4.3329,4.3345,4.3285,4.3391,4.3577,4.3599,4.3358,4.3355,4.3353,0,4.2114,4.2303,4.2445,4.2498,4.2634,4.27,4.2759,4.2858,4.293,4.3034,4.3082,4.3199,4.3263,4.3354,4.3409,4.3366,4.3582,4.3534,4.3614,4.3613,4.366,4.3657,4.3859,4.3698,4.3698,4.3697,4.3697,0,4.2278,4.2398,4.2486,4.2574,4.2709,4.2762,4.2895,4.2955,4.3042,4.3142,4.3166,4.326,4.3327,4.3429,4.3474,4.3613,4.3642,4.3674,4.3684,4.3672,4.3668,4.3715,4.3707,4.3703,4.3702,4.3701,4.37,0,4.24,4.2464,4.262,4.2735,4.2767,4.2862,4.296,4.3047,4.31,4.3226,4.3259,4.3344,4.3466,4.353,4.3683,4.3713,4.387,4.3874,4.3836,4.384,4.3918,4.391,4.4158,4.4194,4.4008,4.4009,4.4011,0,4.2501,4.2594,4.2718,4.2787,4.2848,4.2957,4.3031,4.3087,4.3163,4.3286,4.3357,4.348,4.3582,4.3777,4.3852,4.3969,4.3977,4.4056,4.3995,4.398,4.398,4.3974,4.3984,4.4067,4.4069,4.407,4.4071,0,4.2674,4.2701,4.2805,4.2922,4.3008,4.3103,4.3196,4.325,4.3321,4.3405,4.353,4.3609,4.3764,4.3887,4.4009,4.4071,4.4084,4.409,4.4115,4.4104,4.4079,4.4094,4.3866,4.4084,4.4083,4.4082,4.4081,4.4081,4.279,4.2873,4.2973,4.3089,4.3165,4.3251,4.3338,4.3402,4.3507,4.3637,4.3664,4.3796,4.3896,4.4062,4.4127,4.4232,4.4216,4.4252,4.4261,4.427,4.4273,4.406,4.4254,4.4254,4.4254,4.4253,4.4253,0,4.2964,4.303,4.3136,4.3265,4.3356,4.3358,4.3461,4.3538,4.3654,4.3745,4.3845,4.3988,4.4107,4.4191,4.4312,4.4379,4.4388,4.4409,4.4406,4.442,4.4281,4.4247,4.44,4.44,4.44,4.44,4.44,4.44,4.3066,4.3207,4.3246,4.3425,4.3489,4.3619,4.3677,4.3757,4.3831,4.399,4.4088,4.4142,4.4231,4.4358,4.4467,4.4489,4.4533,4.4554,4.4576,4.4445,4.443,4.4415,4.4384,4.4563,4.4563,4.4707,4.4708,4.4709]}]]